Wind_Speed
24 23 24 25 26 26 25 24 24 24 24 25 24 24 23 23 22 21 20 20 19 19 19 18 18 18 18 18 18 18 18 17 17 17 17 17 17 17 17 17 17 17 17 17 17 18 18 17 17
25 24 25 26 26 25 24 24 25 25 26 26 26 25 25 25 24 23 22 22 21 20 20 20 20 20 20 20 20 19 19 19 19 19 19 19 18 18 18 18 18 18 18 19 19 19 19 19 19
26 26 27 27 27 25 24 25 25 26 27 27 27 27 27 26 25 25 24 24 23 22 22 22 21 21 21 21 21 21 21 21 21 21 21 20 20 19 19 19 19 19 20 20 21 20 21 21 21
27 27 28 28 27 26 26 26 27 27 27 28 28 28 28 27 27 26 26 25 24 24 24 23 22 22 22 22 22 22 22 22 23 23 22 22 22 21 21 21 21 21 21 22 22 22 22 22 23
27 27 28 28 27 26 26 27 27 27 28 28 29 29 28 28 28 28 27 27 26 26 25 25 24 24 24 24 24 24 24 24 24 24 24 24 24 24 23 23 23 24 23 24 24 24 25 25 24
27 28 29 28 27 27 26 27 28 29 29 30 30 30 30 29 29 29 28 28 28 28 27 27 27 26 26 26 26 26 25 26 26 26 26 26 26 26 26 26 26 26 25 25 26 26 27 27 27
27 28 29 28 28 28 28 28 28 29 30 30 31 31 30 30 30 29 29 30 30 30 29 29 29 28 28 28 28 28 28 28 28 28 28 28 28 29 28 28 28 28 28 28 28 28 28 29 29
27 29 29 29 29 28 28 29 29 30 30 30 31 31 31 31 31 31 30 31 31 32 31 31 30 31 31 30 30 30 30 31 31 31 31 31 31 31 31 31 30 30 30 30 30 30 29 29 29
26 28 28 29 29 29 29 29 30 31 31 31 31 32 32 32 32 32 32 32 33 33 33 33 32 32 32 33 33 33 33 33 33 33 33 33 33 33 33 33 32 32 32 32 32 31 31 31 31
26 27 27 29 29 30 30 31 32 32 32 32 32 33 33 33 33 33 33 34 34 34 34 34 34 34 34 34 34 34 35 35 35 35 35 35 35 35 34 34 34 34 34 34 34 34 34 34 33
24 26 27 28 29 30 30 31 32 32 33 34 34 34 33 34 34 34 34 35 35 35 34 35 35 35 35 35 36 36 36 36 36 37 36 37 37 37 36 36 36 36 36 36 36 36 36 36 36
24 25 26 28 29 30 31 32 32 33 34 35 35 35 35 34 34 34 34 35 35 35 36 36 36 36 36 37 37 37 37 38 38 38 38 38 39 39 39 38 38 38 38 38 38 38 38 38 38
24 25 26 28 29 30 31 32 33 34 35 36 36 36 36 35 35 35 35 36 36 36 36 37 38 38 38 38 38 38 38 39 39 40 39 40 40 40 41 41 41 41 40 40 40 39 39 39 39
24 25 26 28 29 30 32 32 33 33 35 36 36 36 36 35 35 36 35 36 37 37 37 38 38 39 39 39 39 39 40 40 40 40 40 41 41 42 43 42 42 42 42 42 41 40 40 40 40
24 25 26 28 30 31 32 33 33 33 34 35 36 36 36 36 36 36 36 36 36 37 38 39 39 39 40 39 40 40 40 40 41 41 42 42 43 43 44 44 44 43 43 43 42 41 41 42 42
24 25 26 28 31 32 33 33 32 33 34 35 36 36 37 37 37 38 38 38 38 37 37 38 39 40 40 40 40 40 40 41 42 42 42 43 43 44 44 44 44 43 44 43 43 43 43 43 43
25 26 26 28 30 32 34 33 32 34 34 35 35 36 37 37 37 38 38 39 38 38 38 38 38 39 40 40 41 41 41 41 42 42 43 43 44 44 44 44 45 45 44 44 44 44 44 44 44
25 26 27 28 30 32 34 33 33 34 35 35 35 36 37 37 37 38 38 39 39 39 38 38 38 39 39 40 41 42 42 42 43 43 43 44 44 45 45 45 45 45 45 45 45 45 45 44 44
26 27 27 27 29 31 32 33 32 33 34 34 35 35 36 37 37 37 38 39 39 39 38 38 39 40 40 40 41 42 43 44 44 44 44 45 44 45 45 45 46 45 46 45 44 45 45 45 44
26 26 27 27 28 30 30 30 30 31 32 32 32 33 35 36 37 37 38 38 39 39 39 38 39 40 41 41 41 42 42 43 44 44 44 44 44 45 46 46 45 45 45 45 45 44 45 45 45
25 26 26 26 27 28 29 28 27 29 30 31 31 32 33 34 35 36 37 38 39 39 39 39 40 40 40 40 40 41 42 42 42 42 43 43 44 45 45 46 46 44 44 44 45 45 44 44 45
24 24 24 25 26 26 27 28 25 26 28 30 30 30 31 32 33 34 35 36 37 38 39 39 39 39 40 40 40 40 40 40 40 41 41 41 42 43 43 44 44 44 43 43 43 43 43 43 44
23 23 24 24 25 26 25 27 24 25 27 28 29 29 30 31 32 33 34 35 36 37 38 39 39 39 39 39 39 38 38 39 39 39 40 41 41 41 42 42 41 42 42 42 42 42 42 42 42
24 24 24 25 26 26 25 26 24 24 25 26 27 28 29 30 31 32 33 34 35 35 36 37 38 37 37 37 38 38 37 37 38 38 38 39 39 39 39 39 40 40 40 40 40 40 41 41 41
24 24 25 25 25 25 24 25 23 23 23 24 25 26 28 29 30 31 32 33 33 34 34 34 35 35 35 36 36 36 36 36 36 37 37 37 38 38 38 38 38 38 38 38 38 39 39 39 39
23 23 24 25 25 24 24 24 22 22 22 23 24 26 27 28 29 30 31 32 32 32 32 32 33 34 34 34 34 34 35 35 35 36 36 36 37 37 37 38 38 37 37 37 37 37 38 38 38
23 23 23 25 26 26 24 24 22 22 23 23 23 24 25 26 27 28 29 30 31 31 31 31 32 32 32 32 33 33 34 34 35 35 35 35 35 34 34 35 35 35 36 37 37 37 37 38 37
23 23 23 24 26 26 25 24 23 22 23 23 24 23 24 25 26 27 27 28 29 30 30 31 31 31 32 32 32 33 33 33 34 34 34 33 33 33 32 33 34 35 35 36 36 36 36 36 37
23 23 23 24 25 26 27 24 22 22 22 23 23 23 22 23 24 25 26 26 26 27 28 29 30 30 31 31 31 32 32 32 33 33 32 31 31 31 31 32 33 33 34 34 33 34 35 36 36
24 23 24 24 25 26 27 25 23 23 22 22 22 21 21 22 23 24 24 24 25 25 26 27 28 29 30 30 30 30 30 31 31 30 30 30 31 31 32 32 32 32 32 33 33 32 33 34 34
Wind_Direction
243 243 239 238 239 240 241 240 240 241 241 242 244 245 246 249 250 252 252 253 252 251 251 252 251 251 251 251 252 253 254 255 258 260 260 261 263 264 264 266 268 268 268 268 268 267 268 268 269
244 241 240 239 240 242 242 242 241 242 244 244 245 247 248 250 251 253 254 254 253 253 252 252 252 253 253 253 253 254 255 256 258 259 261 261 262 263 265 267 268 269 268 268 268 268 268 268 269
244 242 242 241 241 243 243 242 242 243 245 246 246 247 248 250 252 253 253 254 253 252 253 253 252 253 254 255 255 255 255 256 258 259 260 261 262 263 264 267 269 270 270 270 270 270 269 270 270
246 245 244 243 242 243 244 243 244 244 245 247 248 249 250 251 252 252 252 254 253 253 253 253 254 254 255 255 255 256 256 257 258 258 259 261 262 263 265 266 268 270 271 271 270 270 271 271 271
247 246 246 245 244 245 246 246 246 246 247 248 250 251 252 252 252 252 252 253 253 254 255 255 254 254 255 256 256 256 256 257 258 258 259 261 262 263 264 266 268 269 270 271 272 271 271 271 271
248 247 247 247 245 245 246 247 248 248 248 250 251 252 252 253 254 254 253 254 254 254 255 255 255 255 255 256 256 256 257 258 258 259 260 262 264 265 265 266 268 268 269 270 272 272 272 272 272
250 249 248 247 246 245 246 249 250 250 249 250 252 253 253 253 254 254 254 255 255 254 255 256 256 256 256 256 257 257 257 258 259 260 261 262 264 265 266 267 268 268 268 269 270 272 272 272 272
251 250 249 249 247 246 247 249 250 251 251 251 252 254 253 254 254 255 255 255 256 256 256 256 256 256 255 256 257 258 258 258 259 260 261 263 264 265 266 267 267 268 268 269 269 270 271 271 271
253 252 251 250 249 249 249 251 251 252 252 252 253 254 254 254 255 255 255 255 256 256 256 255 257 257 257 257 257 259 259 259 260 261 262 263 265 266 266 267 267 268 268 268 269 269 270 270 272
254 253 253 252 251 250 250 252 252 252 253 254 254 254 255 255 255 255 255 255 255 255 256 256 257 257 258 258 259 259 260 260 261 262 263 264 265 265 266 267 267 267 268 268 268 269 269 270 271
256 255 254 254 253 252 252 254 253 253 254 255 256 256 256 255 255 256 256 255 255 256 255 256 257 258 259 259 259 260 262 262 262 262 263 263 264 265 265 266 266 266 267 268 268 269 270 270 271
260 257 256 256 255 255 255 255 255 255 256 256 257 257 257 256 255 255 256 257 256 256 256 256 258 259 259 260 260 260 262 262 263 263 263 263 263 264 264 265 265 266 267 267 268 269 270 271 271
263 261 260 258 258 258 258 258 258 258 258 258 257 257 257 256 255 254 256 257 257 257 257 257 257 259 259 260 261 261 262 262 263 263 263 263 264 264 265 266 266 266 266 267 267 269 270 271 270
265 264 263 262 261 261 261 260 261 261 259 258 257 256 256 257 256 255 255 257 258 258 258 258 258 259 260 260 260 261 262 262 263 264 264 263 265 265 265 265 266 266 266 265 266 268 270 270 270
266 266 264 264 265 265 264 262 262 262 259 257 256 256 255 256 256 256 256 257 258 258 259 259 258 259 260 260 261 261 261 263 263 264 264 265 266 266 266 265 265 265 265 266 266 267 269 270 270
268 267 267 268 268 268 267 265 264 264 261 258 257 256 255 255 257 257 257 258 258 258 259 259 259 259 260 261 261 261 262 263 263 264 265 266 267 266 266 266 265 265 265 266 267 268 268 269 269
270 271 271 272 271 270 268 266 265 265 262 259 257 256 256 256 257 258 258 258 259 259 259 260 260 260 261 262 262 262 263 264 264 264 265 266 267 267 266 266 266 266 266 267 267 268 268 267 267
275 275 276 276 274 273 271 268 267 265 263 260 258 257 256 256 257 258 258 259 259 259 260 260 260 261 261 262 262 263 263 264 265 266 267 267 268 267 266 266 266 267 267 268 268 268 267 266 267
278 279 281 281 279 276 273 270 268 265 263 260 258 257 257 257 258 259 259 259 259 259 261 262 262 261 262 263 263 263 264 264 265 267 268 268 268 267 266 266 266 266 267 268 268 268 266 266 266
279 281 283 283 281 279 276 272 269 266 264 263 260 258 258 257 258 259 260 259 259 260 261 262 263 263 263 263 264 264 265 266 267 268 268 268 268 267 266 267 267 267 267 267 267 268 266 266 266
281 283 286 285 283 283 280 274 270 266 265 263 262 260 259 259 260 260 260 260 260 261 262 262 263 263 264 265 265 266 266 268 269 268 268 268 267 266 266 267 267 267 268 267 267 266 266 266 266
281 283 286 288 287 286 284 281 271 269 267 266 265 263 262 262 260 261 261 262 261 261 261 262 262 263 265 266 266 267 267 268 268 268 269 268 267 267 267 267 267 268 269 269 268 266 266 266 266
280 282 286 288 288 287 286 284 278 275 273 271 269 266 265 264 263 262 262 263 262 262 261 261 263 263 264 266 265 265 266 267 267 268 268 268 268 269 269 268 267 268 269 270 268 267 267 267 266
279 281 285 288 288 287 288 287 283 280 279 274 270 268 268 267 265 264 264 265 265 263 262 262 263 263 264 265 264 264 265 267 268 269 268 268 269 269 269 269 268 268 269 269 268 268 267 268 267
278 280 284 288 287 289 291 289 288 286 283 278 275 272 270 269 268 266 264 265 265 264 263 263 264 263 263 264 265 265 265 267 268 268 268 268 268 269 268 268 269 269 270 269 269 268 268 268 267
277 279 283 287 290 291 291 291 292 290 287 283 279 276 274 272 270 268 267 266 265 265 264 263 264 264 264 264 266 267 266 267 268 269 269 268 269 269 268 269 269 270 270 270 271 270 268 267 267
275 278 282 286 289 290 291 294 294 292 290 288 285 280 277 274 273 271 270 268 266 265 263 263 264 264 264 265 265 267 268 268 268 268 268 268 268 268 269 270 270 271 272 271 271 271 268 267 267
275 278 282 286 290 291 292 295 298 297 293 291 290 284 279 275 274 274 272 270 269 266 263 263 264 264 265 266 267 267 267 268 268 268 267 267 267 268 268 269 271 272 272 272 272 271 269 267 267
274 276 280 285 288 291 293 295 299 299 297 294 292 286 280 276 275 276 274 272 270 268 265 263 264 265 267 268 268 268 268 268 269 268 267 267 268 269 270 272 274 273 274 274 273 273 270 267 268
274 276 278 283 286 288 291 294 298 297 296 294 293 290 283 279 279 279 277 274 273 271 267 266 266 267 268 269 269 269 269 269 269 268 267 267 269 269 271 273 273 273 272 272 273 275 272 269 267
Height
5811 5812 5814 5816 5818 5819 5821 5824 5825 5826 5827 5829 5830 5831 5831 5833 5835 5838 5837 5836 5837 5837 5838 5838 5838 5839 5839 5840 5840 5841 5841 5842 5842 5843 5843 5843 5844 5844 5844 5844 5844 5844 5844 5844 5844 5844 5843 5844 5844
5807 5808 5810 5811 5813 5815 5818 5819 5821 5822 5823 5824 5825 5826 5827 5828 5829 5831 5831 5832 5832 5833 5834 5834 5835 5835 5836 5836 5837 5837 5838 5838 5839 5839 5840 5840 5840 5841 5841 5841 5841 5841 5840 5840 5840 5840 5840 5840 5840
5802 5803 5806 5807 5808 5811 5814 5815 5816 5817 5818 5819 5820 5821 5822 5823 5825 5826 5826 5827 5828 5828 5829 5830 5830 5831 5832 5832 5833 5833 5834 5835 5835 5836 5836 5837 5837 5837 5837 5837 5837 5837 5837 5837 5836 5836 5836 5836 5836
5797 5799 5800 5802 5804 5807 5808 5810 5811 5812 5813 5813 5815 5816 5817 5819 5819 5821 5821 5822 5823 5824 5824 5825 5826 5826 5827 5828 5829 5829 5830 5831 5831 5832 5832 5833 5833 5833 5833 5833 5833 5833 5833 5833 5832 5832 5832 5831 5831
5791 5793 5794 5796 5799 5801 5802 5803 5805 5806 5807 5808 5809 5810 5812 5813 5814 5815 5816 5817 5818 5819 5819 5820 5821 5821 5822 5823 5824 5825 5825 5826 5827 5827 5828 5828 5828 5829 5829 5829 5829 5829 5828 5828 5828 5827 5827 5826 5826
5786 5787 5789 5791 5793 5795 5796 5797 5799 5800 5801 5802 5803 5805 5806 5807 5808 5810 5811 5811 5812 5813 5814 5814 5815 5816 5817 5818 5819 5819 5820 5821 5821 5822 5823 5823 5823 5824 5824 5824 5824 5824 5823 5823 5823 5822 5822 5821 5821
5781 5781 5783 5785 5787 5789 5790 5791 5792 5793 5795 5796 5797 5798 5800 5801 5802 5803 5804 5805 5806 5807 5808 5809 5810 5810 5811 5812 5813 5814 5815 5815 5816 5816 5817 5817 5818 5818 5818 5818 5818 5818 5818 5817 5817 5817 5816 5815 5815
5774 5776 5777 5779 5781 5783 5784 5784 5786 5787 5788 5789 5791 5792 5793 5794 5795 5796 5798 5798 5799 5800 5801 5802 5803 5804 5805 5806 5807 5808 5808 5809 5810 5810 5810 5811 5811 5811 5811 5812 5812 5812 5811 5811 5811 5810 5810 5809 5809
5768 5770 5771 5773 5774 5776 5777 5778 5779 5780 5781 5783 5784 5785 5786 5787 5788 5789 5790 5791 5792 5793 5794 5795 5796 5797 5798 5799 5800 5801 5801 5802 5803 5803 5804 5804 5804 5805 5805 5805 5805 5805 5805 5805 5804 5804 5803 5803 5802
5762 5764 5766 5767 5768 5769 5770 5771 5772 5773 5774 5775 5776 5777 5778 5779 5780 5781 5782 5784 5785 5786 5787 5788 5789 5790 5791 5792 5792 5793 5794 5794 5795 5796 5796 5797 5797 5797 5797 5798 5798 5797 5797 5797 5797 5796 5796 5795 5795
5757 5758 5759 5760 5760 5761 5763 5763 5764 5765 5767 5768 5768 5769 5770 5771 5772 5773 5774 5775 5777 5778 5779 5780 5781 5782 5783 5784 5784 5785 5786 5787 5787 5788 5788 5788 5789 5789 5789 5790 5790 5790 5789 5789 5789 5788 5788 5787 5787
5751 5752 5752 5753 5753 5754 5755 5756 5757 5758 5759 5759 5760 5761 5762 5763 5764 5765 5766 5767 5768 5769 5771 5772 5773 5774 5774 5775 5776 5777 5777 5778 5779 5779 5779 5780 5780 5781 5781 5781 5781 5781 5781 5781 5781 5780 5779 5778 5778
5745 5746 5746 5746 5747 5747 5747 5748 5749 5750 5750 5750 5751 5752 5753 5754 5755 5756 5757 5758 5759 5760 5762 5763 5764 5765 5766 5767 5767 5768 5769 5769 5769 5770 5770 5771 5771 5771 5771 5772 5771 5771 5771 5771 5771 5771 5770 5769 5768
5740 5740 5739 5739 5739 5739 5739 5740 5740 5742 5741 5741 5742 5743 5745 5746 5747 5748 5749 5749 5750 5751 5752 5754 5755 5756 5757 5758 5758 5759 5759 5760 5760 5760 5761 5761 5761 5762 5762 5762 5761 5761 5761 5762 5762 5761 5761 5760 5759
5733 5733 5733 5733 5732 5732 5731 5732 5732 5732 5732 5732 5733 5734 5735 5737 5737 5739 5740 5740 5741 5742 5743 5744 5745 5746 5747 5748 5749 5749 5750 5750 5751 5751 5751 5751 5751 5751 5751 5751 5751 5751 5751 5751 5751 5751 5751 5750 5749
5727 5726 5726 5726 5724 5723 5724 5724 5725 5723 5723 5723 5724 5725 5726 5727 5728 5729 5730 5731 5732 5733 5734 5735 5736 5737 5738 5738 5739 5739 5740 5740 5740 5741 5741 5741 5740 5740 5740 5740 5740 5741 5741 5741 5741 5741 5740 5739 5739
5720 5719 5719 5718 5716 5714 5714 5715 5716 5714 5713 5714 5715 5715 5716 5718 5719 5720 5721 5722 5723 5724 5725 5725 5726 5727 5728 5728 5729 5729 5730 5730 5730 5730 5730 5730 5729 5729 5729 5729 5729 5729 5730 5729 5729 5729 5729 5728 5728
5713 5712 5711 5710 5708 5705 5704 5705 5706 5704 5703 5704 5705 5706 5707 5708 5710 5710 5711 5712 5713 5714 5715 5716 5717 5717 5718 5719 5719 5719 5719 5719 5720 5719 5719 5718 5718 5718 5718 5718 5718 5718 5718 5718 5717 5717 5716 5717 5716
5705 5704 5703 5701 5698 5696 5695 5695 5696 5694 5694 5694 5696 5697 5698 5699 5700 5700 5701 5702 5703 5704 5705 5706 5707 5707 5708 5708 5709 5709 5709 5709 5709 5708 5708 5707 5707 5707 5706 5706 5706 5706 5706 5706 5705 5704 5704 5705 5705
5697 5696 5695 5693 5690 5688 5687 5686 5686 5685 5685 5686 5687 5688 5689 5689 5690 5691 5691 5692 5693 5694 5695 5696 5697 5697 5697 5698 5698 5698 5698 5698 5697 5697 5696 5696 5695 5695 5695 5694 5694 5694 5694 5693 5693 5692 5692 5693 5693
5690 5689 5688 5686 5683 5680 5678 5679 5679 5678 5677 5677 5678 5679 5679 5680 5680 5681 5682 5682 5683 5685 5685 5686 5687 5687 5687 5687 5687 5687 5687 5687 5687 5686 5685 5684 5683 5683 5683 5683 5682 5682 5682 5682 5681 5680 5680 5680 5681
5684 5683 5680 5678 5675 5673 5672 5670 5672 5670 5669 5669 5670 5670 5671 5671 5671 5671 5672 5673 5674 5674 5675 5676 5676 5676 5676 5676 5676 5677 5677 5676 5676 5675 5674 5673 5672 5671 5671 5670 5670 5670 5670 5670 5669 5668 5668 5668 5668
5677 5676 5674 5671 5668 5667 5665 5663 5665 5663 5662 5662 5662 5662 5662 5661 5662 5662 5662 5662 5663 5663 5664 5664 5665 5665 5665 5666 5666 5666 5666 5666 5665 5664 5663 5662 5661 5660 5659 5659 5659 5659 5659 5658 5657 5657 5657 5656 5657
5670 5669 5667 5664 5662 5660 5659 5656 5656 5656 5655 5654 5653 5653 5652 5652 5652 5652 5652 5652 5652 5652 5653 5653 5654 5654 5655 5655 5655 5656 5656 5655 5655 5654 5653 5652 5651 5650 5649 5648 5648 5648 5648 5647 5646 5646 5646 5645 5645
5664 5662 5660 5657 5655 5654 5652 5649 5650 5649 5647 5645 5645 5644 5643 5643 5643 5642 5642 5642 5642 5642 5642 5643 5643 5644 5644 5645 5645 5645 5645 5645 5645 5644 5643 5642 5641 5640 5639 5638 5638 5638 5637 5637 5636 5635 5635 5635 5635
5657 5656 5655 5652 5649 5648 5645 5643 5645 5642 5639 5637 5636 5635 5634 5634 5633 5633 5633 5632 5632 5632 5633 5633 5633 5634 5634 5635 5635 5635 5635 5635 5635 5634 5633 5632 5631 5630 5629 5629 5628 5628 5627 5627 5626 5626 5625 5625 5625
5650 5649 5648 5645 5642 5640 5639 5638 5638 5635 5633 5630 5629 5627 5626 5625 5624 5623 5623 5623 5623 5623 5623 5624 5624 5624 5625 5625 5625 5625 5625 5625 5625 5624 5623 5623 5622 5621 5620 5619 5619 5618 5617 5617 5616 5616 5615 5615 5615
5644 5642 5641 5638 5635 5632 5632 5631 5631 5628 5626 5623 5621 5619 5617 5616 5615 5614 5614 5613 5613 5613 5613 5614 5614 5615 5615 5615 5616 5616 5616 5615 5615 5614 5614 5613 5613 5612 5611 5610 5610 5609 5608 5607 5606 5606 5605 5605 5605
5637 5636 5633 5631 5629 5626 5624 5627 5624 5621 5618 5616 5613 5611 5609 5608 5607 5606 5605 5604 5604 5603 5604 5604 5605 5606 5606 5606 5606 5606 5606 5606 5605 5605 5604 5604 5603 5603 5602 5602 5600 5599 5598 5598 5597 5596 5596 5596 5596
5629 5628 5627 5625 5623 5619 5617 5620 5617 5614 5611 5609 5606 5604 5602 5600 5599 5598 5597 5596 5595 5595 5595 5595 5596 5596 5596 5596 5596 5596 5596 5596 5596 5595 5595 5595 5594 5594 5593 5593 5592 5591 5590 5589 5588 5587 5587 5586 5586